{"data":{"norad_id":63665,"epoch":"2026-09-20T19:22:43.565952Z","epoch_age_seconds":126044,"freshness":"FRESH","line1":"1 63665U 25085B   26263.80744868  .00226042  00000+0  17086-2 0  9999","line2":"2 63665  42.9998 181.8788 0003025 233.2356 126.8234 15.70963718 81545","mean_motion":15.70963718,"eccentricity":0.0003025,"inclination_deg":42.9998,"raan_deg":181.8788,"arg_perigee_deg":233.2356,"mean_anomaly_deg":126.8234,"bstar":0.0017086,"rev_number":8154,"period_min":91.663479143444,"perigee_km":354.10435633816,"apogee_km":358.17859481588,"semimajor_km":6734.278475577,"source":"CELESTRAK","updated_at":"2026-09-21T09:00:35.057098Z"}}